TimeEDT,TemperatureF,Dew PointF,Humidity,Sea Level PressureIn,VisibilityMPH,Wind Direction,Wind SpeedMPH,Gust SpeedMPH,PrecipitationIn,Events,Conditions,WindDirDegrees,DateUTC
12:53 AM,54.0,42.1,64,29.89,10.0,Calm,Calm,-,0.00,,Clear,0,2013-04-10 04:53:00
1:53 AM,53.1,42.1,66,29.85,10.0,Calm,Calm,-,N/A,,Scattered Clouds,0,2013-04-10 05:53:00
2:53 AM,57.9,43.0,58,29.90,10.0,East,11.5,-,0.00,Rain,Light Rain,80,2013-04-10 06:53:00
3:53 AM,54.0,45.0,72,29.90,10.0,NNE,11.5,18.4,0.00,,Scattered Clouds,20,2013-04-10 07:53:00
4:53 AM,52.0,45.0,77,29.90,10.0,North,4.6,-,N/A,,Clear,10,2013-04-10 08:53:00
5:53 AM,50.0,44.1,80,29.91,10.0,Calm,Calm,-,N/A,,Clear,0,2013-04-10 09:53:00
6:53 AM,48.9,44.1,83,29.93,10.0,Calm,Calm,-,N/A,,Clear,0,2013-04-10 10:53:00
7:53 AM,51.1,45.0,80,29.95,10.0,SSE,3.5,-,N/A,,Overcast,160,2013-04-10 11:53:00
8:53 AM,57.0,46.0,67,29.95,10.0,Calm,Calm,-,0.00,Rain,Light Rain,0,2013-04-10 12:53:00
9:53 AM,60.1,48.0,64,29.94,10.0,ENE,5.8,-,0.00,Rain,Light Rain,60,2013-04-10 13:53:00
10:53 AM,64.9,51.1,61,29.94,10.0,NE,5.8,-,0.00,Rain,Light Rain,50,2013-04-10 14:53:00
11:53 AM,66.9,53.1,61,29.95,10.0,Variable,5.8,-,0.00,Rain,Light Rain,0,2013-04-10 15:53:00
12:53 PM,70.0,54.0,57,29.94,10.0,NE,9.2,-,0.00,Rain,Light Rain,50,2013-04-10 16:53:00
1:53 PM,73.0,54.0,51,29.91,-9999.0,Variable,6.9,-,N/A,,Unknown,0,2013-04-10 17:53:00
2:53 PM,70.0,53.1,55,29.89,10.0,NE,11.5,-,N/A,,Partly Cloudy,50,2013-04-10 18:53:00
3:53 PM,70.0,53.1,55,29.86,10.0,ENE,10.4,-,N/A,Rain,Light Rain,60,2013-04-10 19:53:00
4:53 PM,69.1,52.0,54,29.83,10.0,North,5.8,-,0.00,,Clear,10,2013-04-10 20:53:00
5:53 PM,68.0,52.0,56,29.81,10.0,NE,3.5,-,0.00,Rain,Light Rain,40,2013-04-10 21:53:00
6:13 PM,66.2,55.4,68,29.94,4.0,West,17.3,34.5,0.06,Rain-Thunderstorm,Heavy Thunderstorms and Rain,280,2013-04-10 22:13:00
6:19 PM,62.6,57.2,82,29.90,1.8,Variable,5.8,34.5,0.14,Rain-Thunderstorm,Heavy Thunderstorms and Rain,0,2013-04-10 22:19:00
6:26 PM,62.6,57.2,82,29.90,3.0,SSW,5.8,-,0.15,Rain-Thunderstorm,Thunderstorms and Rain,200,2013-04-10 22:26:00
6:53 PM,61.0,57.0,87,29.86,6.0,SSE,3.5,-,0.20,Rain-Thunderstorm,Light Thunderstorms and Rain,150,2013-04-10 22:53:00
7:14 PM,60.8,57.2,88,29.85,10.0,SW,5.8,-,0.01,Rain,Light Rain,230,2013-04-10 23:14:00
7:53 PM,60.1,57.0,90,29.81,10.0,Calm,Calm,-,0.02,,Clear,0,2013-04-10 23:53:00
8:27 PM,57.2,55.4,94,29.83,1.5,Calm,Calm,-,N/A,,Partly Cloudy,0,2013-04-11 00:27:00
8:34 PM,57.2,55.4,94,29.82,1.0,Calm,Calm,-,N/A,,Partly Cloudy,0,2013-04-11 00:34:00
8:38 PM,57.2,57.2,100,29.83,2.5,SE,4.6,-,N/A,,Partly Cloudy,140,2013-04-11 00:38:00
8:45 PM,57.2,57.2,100,29.81,4.0,SSE,4.6,-,N/A,,Scattered Clouds,150,2013-04-11 00:45:00
8:53 PM,59.0,57.0,93,29.83,7.0,Calm,Calm,-,N/A,,Mostly Cloudy,0,2013-04-11 00:53:00
9:53 PM,60.1,57.0,90,29.89,4.0,SE,5.8,-,0.04,Rain,Rain,140,2013-04-11 01:53:00
10:18 PM,59.0,57.2,94,29.88,6.0,Calm,Calm,-,0.02,Thunderstorm,Overcast,0,2013-04-11 02:18:00
10:33 PM,59.0,57.2,94,29.87,5.0,Calm,Calm,-,0.03,Rain,Light Rain,0,2013-04-11 02:33:00
10:53 PM,59.0,57.0,93,29.87,5.0,SSW,3.5,-,0.04,Rain,Light Rain,210,2013-04-11 02:53:00
11:33 PM,60.8,57.2,88,29.84,5.0,Variable,3.5,-,0.03,Rain,Light Rain,0,2013-04-11 03:33:00
11:53 PM,59.0,57.0,93,29.82,5.0,Calm,Calm,-,0.03,,Scattered Clouds,0,2013-04-11 03:53:00